Temp
-9 -8 -9 -8 -9 -9 -9 -9 -9 -9 -9 -9 -9 -9 -9 -9 -9 -9 -8 -8 -8 -8 -8 -8 -8 -8 -8 -8 -8 -8 -8 -8 -8 -8 -8 -8 -8 -8 -8 -7 -8 -7 -7
-9 -9 -9 -9 -8 -9 -8 -9 -9 -9 -9 -9 -9 -9 -9 -10 -9 -9 -8 -8 -9 -8 -8 -8 -8 -8 -8 -8 -8 -8 -8 -8 -8 -8 -8 -7 -7 -8 -8 -7 -8 -8 -7
-9 -9 -9 -9 -9 -9 -8 -9 -9 -9 -9 -9 -9 -9 -9 -9 -9 -8 -7 -7 -8 -8 -8 -8 -8 -8 -8 -8 -8 -8 -8 -8 -8 -7 -8 -7 -7 -8 -8 -7 -7 -7 -7
-9 -9 -9 -10 -9 -10 -9 -9 -9 -9 -9 -9 -9 -9 -9 -9 -8 -8 -7 -7 -7 -8 -8 -8 -8 -8 -8 -8 -8 -7 -7 -8 -8 -7 -7 -7 -7 -7 -8 -8 -8 -8 -8
-8 -8 -10 -10 -10 -10 -10 -9 -10 -9 -9 -9 -9 -9 -9 -9 -8 -8 -8 -8 -8 -8 -8 -8 -8 -8 -8 -8 -8 -8 -8 -8 -8 -7 -7 -7 -7 -7 -8 -7 -8 -8 -8
-8 -9 -10 -10 -8 -9 -9 -9 -10 -9 -9 -9 -9 -9 -9 -9 -9 -8 -8 -8 -8 -8 -8 -8 -8 -8 -8 -8 -8 -8 -8 -8 -7 -7 -7 -7 -7 -8 -7 -7 -8 -7 -8
-9 -9 -10 -9 -9 -9 -10 -10 -10 -9 -9 -9 -9 -8 -9 -8 -8 -8 -8 -8 -8 -8 -8 -8 -8 -7 -7 -8 -8 -8 -7 -7 -7 -7 -7 -7 -8 -8 -7 -7 -7 -8 -8
-9 -9 -9 -9 -9 -9 -10 -10 -10 -9 -9 -9 -9 -9 -9 -8 -8 -8 -8 -8 -8 -8 -8 -8 -8 -8 -8 -7 -7 -7 -8 -7 -7 -8 -8 -7 -8 -8 -8 -8 -8 -8 -8
-9 -9 -9 -9 -9 -9 -9 -9 -9 -9 -9 -9 -9 -9 -9 -9 -8 -8 -8 -8 -8 -8 -8 -8 -8 -8 -8 -8 -7 -7 -8 -8 -8 -7 -7 -7 -8 -8 -8 -8 -8 -8 -8
-9 -9 -9 -9 -8 -9 -9 -8 -8 -8 -9 -9 -9 -9 -8 -9 -8 -8 -8 -9 -8 -8 -8 -8 -8 -8 -8 -8 -8 -8 -8 -8 -8 -8 -8 -8 -8 -8 -8 -8 -8 -8 -8
-9 -9 -9 -8 -8 -9 -8 -9 -8 -9 -9 -9 -9 -8 -8 -8 -8 -9 -9 -9 -8 -8 -8 -8 -8 -8 -8 -8 -8 -8 -7 -8 -8 -8 -8 -8 -8 -8 -8 -8 -8 -8 -9
-9 -9 -9 -9 -9 -9 -9 -9 -9 -9 -9 -9 -9 -9 -9 -8 -8 -8 -9 -9 -8 -8 -8 -8 -8 -8 -8 -8 -8 -8 -8 -8 -7 -8 -8 -8 -8 -7 -8 -8 -8 -8 -9
-10 -9 -9 -9 -9 -9 -9 -9 -10 -10 -9 -9 -9 -9 -8 -9 -8 -8 -8 -9 -9 -8 -8 -8 -8 -8 -8 -9 -9 -8 -8 -8 -8 -8 -8 -8 -8 -8 -8 -8 -8 -8 -8
-10 -9 -9 -9 -9 -9 -9 -9 -10 -9 -9 -9 -9 -9 -8 -8 -8 -9 -9 -8 -8 -8 -9 -8 -8 -8 -8 -8 -8 -8 -9 -8 -8 -8 -8 -8 -8 -8 -8 -8 -8 -9 -9
-10 -9 -9 -9 -9 -9 -9 -10 -10 -9 -9 -9 -9 -9 -9 -8 -8 -9 -9 -9 -9 -8 -8 -8 -8 -9 -8 -8 -8 -8 -8 -8 -8 -8 -8 -8 -8 -8 -8 -9 -9 -9 -9
-10 -10 -9 -9 -9 -9 -9 -10 -10 -10 -9 -9 -9 -9 -9 -8 -8 -8 -9 -9 -9 -9 -9 -9 -9 -8 -8 -9 -9 -9 -8 -8 -9 -9 -9 -9 -9 -9 -9 -9 -9 -9 -9
-10 -10 -9 -9 -9 -9 -9 -9 -9 -9 -9 -9 -8 -9 -8 -8 -8 -8 -8 -9 -9 -9 -9 -9 -9 -8 -8 -8 -8 -9 -8 -8 -9 -9 -9 -9 -9 -9 -9 -9 -9 -9 -10
-10 -10 -9 -9 -9 -9 -9 -9 -9 -9 -9 -8 -8 -8 -8 -8 -8 -9 -8 -9 -9 -9 -9 -9 -8 -8 -9 -9 -9 -9 -9 -9 -9 -9 -8 -8 -8 -9 -10 -9 -9 -10 -10
-10 -10 -9 -9 -9 -9 -9 -9 -9 -9 -9 -8 -8 -8 -8 -8 -8 -8 -8 -8 -9 -9 -9 -8 -9 -9 -9 -9 -9 -9 -9 -9 -10 -10 -10 -10 -10 -10 -10 -10 -11 -11 -11
-10 -10 -10 -9 -9 -9 -9 -9 -9 -8 -8 -7 -8 -8 -8 -8 -8 -8 -8 -8 -8 -9 -9 -9 -9 -9 -9 -10 -10 -10 -10 -10 -10 -10 -10 -11 -11 -11 -11 -11 -11 -11 -11
-10 -10 -10 -9 -9 -9 -9 -9 -8 -8 -8 -8 -8 -8 -8 -8 -8 -8 -9 -9 -9 -9 -9 -10 -10 -10 -11 -11 -10 -10 -10 -10 -10 -10 -11 -11 -11 -11 -11 -11 -11 -12 -11
-9 -9 -10 -9 -9 -9 -9 -9 -8 -8 -8 -8 -8 -8 -8 -9 -10 -10 -10 -9 -9 -10 -10 -10 -10 -10 -11 -11 -11 -10 -10 -11 -11 -11 -12 -12 -12 -12 -12 -12 -12 -12 -12
-9 -9 -9 -9 -9 -9 -9 -9 -9 -8 -8 -7 -7 -8 -9 -9 -9 -10 -10 -10 -10 -10 -11 -10 -10 -11 -11 -11 -11 -11 -11 -11 -12 -12 -12 -12 -12 -12 -12 -12 -12 -13 -12
-9 -9 -9 -9 -9 -8 -8 -8 -8 -8 -8 -8 -8 -8 -9 -9 -9 -9 -10 -10 -11 -11 -11 -11 -11 -11 -11 -11 -12 -11 -11 -11 -11 -11 -12 -12 -12 -13 -13 -13 -13 -13 -13
-9 -9 -9 -9 -9 -9 -8 -8 -8 -8 -8 -8 -8 -8 -9 -9 -10 -10 -10 -10 -11 -11 -11 -11 -11 -11 -12 -12 -12 -12 -12 -12 -12 -12 -13 -13 -13 -13 -13 -13 -13 -13 -13
-9 -9 -10 -10 -10 -9 -8 -9 -9 -9 -8 -8 -9 -9 -10 -10 -11 -11 -11 -11 -11 -12 -12 -12 -12 -12 -12 -12 -12 -13 -13 -12 -13 -13 -13 -12 -12 -13 -13 -13 -13 -13 -13
Height
5874 5876 5874 5869 5869 5868 5864 5860 5857 5855 5852 5849 5846 5843 5841 5837 5834 5833 5832 5834 5836 5839 5843 5847 5849 5851 5853 5857 5864 5869 5873 5879 5881 5883 5886 5887 5888 5892 5895 5897 5897 5896 5896
5875 5871 5870 5867 5865 5865 5861 5859 5856 5853 5850 5846 5843 5839 5836 5829 5824 5822 5822 5824 5827 5830 5835 5841 5844 5847 5849 5853 5860 5864 5868 5873 5876 5876 5882 5885 5888 5889 5892 5893 5894 5892 5894
5870 5869 5866 5863 5860 5860 5860 5858 5854 5852 5848 5843 5839 5832 5827 5820 5817 5815 5814 5816 5819 5823 5828 5833 5837 5840 5845 5849 5853 5858 5863 5867 5871 5875 5878 5881 5884 5886 5888 5889 5890 5890 5891
5870 5865 5865 5863 5863 5862 5861 5857 5852 5848 5844 5839 5833 5827 5819 5815 5813 5811 5810 5810 5814 5818 5823 5826 5830 5834 5840 5844 5847 5852 5857 5862 5867 5870 5873 5875 5879 5882 5884 5885 5887 5888 5888
5864 5868 5866 5863 5862 5857 5856 5854 5849 5846 5841 5837 5832 5824 5817 5812 5809 5808 5806 5807 5810 5814 5817 5820 5824 5830 5835 5839 5844 5847 5851 5858 5862 5864 5868 5872 5874 5877 5880 5881 5884 5885 5884
5866 5865 5860 5857 5855 5854 5853 5851 5845 5845 5840 5836 5831 5824 5816 5812 5809 5807 5805 5806 5808 5810 5813 5816 5820 5826 5831 5835 5839 5842 5847 5853 5857 5860 5864 5867 5870 5873 5875 5877 5878 5878 5879
5865 5861 5855 5854 5851 5848 5850 5847 5844 5843 5838 5835 5829 5823 5816 5812 5810 5807 5805 5805 5806 5808 5809 5813 5817 5821 5827 5831 5835 5839 5845 5849 5852 5857 5859 5861 5864 5869 5871 5873 5873 5872 5874
5861 5858 5857 5852 5851 5850 5847 5843 5841 5840 5836 5833 5828 5823 5815 5812 5809 5806 5805 5804 5805 5806 5808 5811 5814 5818 5822 5826 5831 5836 5840 5845 5848 5853 5856 5859 5861 5864 5867 5869 5869 5869 5870
5858 5854 5855 5852 5849 5848 5845 5843 5839 5837 5835 5833 5829 5823 5817 5812 5809 5806 5805 5805 5805 5805 5807 5810 5812 5815 5819 5824 5827 5831 5836 5841 5846 5849 5852 5856 5859 5860 5862 5862 5864 5865 5865
5856 5855 5853 5854 5850 5845 5844 5840 5836 5832 5833 5832 5828 5825 5821 5814 5811 5808 5807 5807 5806 5806 5807 5808 5810 5814 5817 5820 5824 5828 5832 5837 5841 5844 5847 5851 5854 5856 5857 5857 5858 5858 5859
5853 5851 5851 5848 5845 5844 5841 5837 5832 5830 5831 5831 5828 5825 5821 5817 5813 5809 5809 5809 5809 5809 5809 5809 5811 5813 5816 5820 5823 5825 5828 5832 5835 5840 5843 5845 5847 5849 5852 5853 5853 5852 5852
5851 5850 5848 5847 5845 5842 5841 5836 5832 5831 5831 5831 5828 5825 5822 5819 5816 5814 5811 5810 5810 5810 5810 5809 5812 5814 5817 5819 5821 5822 5824 5828 5832 5835 5837 5839 5841 5843 5845 5846 5846 5846 5846
5850 5849 5847 5846 5843 5841 5840 5838 5835 5833 5832 5830 5827 5825 5822 5820 5817 5815 5813 5812 5810 5810 5810 5812 5813 5815 5816 5818 5819 5821 5824 5826 5828 5830 5832 5834 5836 5837 5837 5837 5838 5839 5839
5846 5845 5844 5843 5841 5839 5837 5836 5834 5832 5830 5830 5828 5825 5822 5819 5817 5815 5814 5813 5812 5812 5810 5811 5812 5813 5815 5816 5817 5819 5821 5821 5822 5823 5825 5826 5827 5829 5830 5830 5832 5833 5833
5842 5841 5840 5839 5838 5836 5834 5833 5832 5830 5830 5827 5825 5822 5820 5818 5815 5814 5813 5812 5813 5812 5812 5812 5812 5811 5811 5812 5813 5815 5816 5817 5818 5818 5819 5820 5821 5821 5823 5823 5825 5825 5826
5840 5839 5837 5836 5834 5833 5831 5831 5829 5828 5827 5824 5823 5818 5816 5814 5813 5812 5811 5810 5810 5810 5810 5810 5810 5809 5810 5809 5810 5809 5810 5811 5811 5812 5812 5812 5814 5815 5816 5817 5817 5817 5817
5835 5834 5833 5831 5830 5829 5828 5826 5827 5824 5822 5821 5818 5818 5813 5811 5810 5809 5809 5809 5808 5807 5808 5808 5808 5807 5807 5806 5806 5806 5806 5806 5806 5807 5807 5808 5808 5808 5809 5809 5808 5808 5808
5832 5830 5829 5826 5826 5825 5824 5822 5821 5821 5819 5816 5813 5812 5810 5809 5807 5805 5806 5806 5805 5805 5804 5804 5804 5803 5802 5801 5801 5801 5800 5800 5801 5801 5801 5801 5800 5801 5801 5800 5800 5800 5800
5827 5825 5822 5820 5820 5819 5819 5819 5817 5814 5812 5812 5809 5808 5807 5806 5804 5804 5802 5802 5802 5799 5798 5799 5798 5798 5798 5797 5796 5795 5795 5794 5794 5793 5793 5793 5793 5794 5794 5793 5793 5793 5792
5822 5820 5817 5815 5814 5814 5813 5813 5813 5811 5808 5805 5803 5802 5801 5802 5800 5799 5798 5797 5796 5795 5793 5793 5794 5794 5793 5792 5792 5791 5790 5789 5788 5787 5786 5785 5785 5785 5785 5785 5784 5784 5783
5816 5814 5811 5810 5809 5809 5808 5808 5807 5805 5803 5802 5800 5799 5798 5796 5795 5794 5793 5792 5792 5790 5789 5788 5787 5787 5786 5786 5785 5784 5783 5782 5781 5781 5780 5779 5779 5778 5777 5776 5776 5774 5774
5809 5807 5805 5804 5804 5804 5803 5802 5800 5799 5797 5796 5795 5794 5793 5791 5790 5789 5788 5785 5785 5784 5783 5782 5781 5781 5780 5779 5777 5775 5774 5773 5771 5772 5772 5771 5769 5768 5766 5765 5764 5762 5761
5801 5800 5799 5799 5799 5799 5798 5796 5794 5793 5792 5791 5790 5789 5788 5786 5784 5783 5781 5780 5779 5778 5778 5777 5776 5776 5775 5773 5770 5768 5767 5765 5763 5764 5762 5761 5760 5759 5757 5755 5754 5752 5749
5793 5792 5792 5792 5793 5793 5792 5790 5789 5788 5786 5785 5784 5782 5781 5779 5777 5776 5774 5772 5772 5771 5770 5769 5768 5768 5767 5764 5763 5762 5760 5759 5758 5756 5754 5752 5751 5749 5747 5744 5742 5739 5736
5785 5784 5784 5785 5786 5786 5785 5784 5783 5782 5781 5779 5778 5776 5774 5773 5771 5770 5768 5766 5765 5764 5764 5763 5761 5760 5759 5758 5756 5755 5753 5751 5750 5748 5747 5744 5742 5739 5737 5734 5731 5728 5724
5777 5776 5777 5778 5778 5778 5777 5777 5776 5775 5774 5773 5771 5769 5768 5767 5765 5763 5761 5760 5759 5758 5757 5756 5755 5754 5753 5751 5749 5747 5746 5745 5743 5741 5738 5735 5732 5729 5725 5722 5719 5716 5709
Wind_Speed
20 15 18 21 14 12 14 16 15 17 19 22 24 24 25 29 28 26 28 27 30 30 29 25 25 24 21 25 35 39 38 33 27 27 26 24 21 20 19 17 18 19 20
16 24 19 21 20 13 16 18 16 18 22 24 26 27 32 34 24 23 24 28 29 31 32 30 27 25 24 27 33 32 40 41 35 31 26 24 21 20 19 19 20 21 21
23 22 18 22 23 18 18 17 15 16 23 27 31 34 38 35 19 22 21 24 27 27 27 30 31 28 27 28 30 31 34 40 38 35 29 26 24 20 21 21 21 22 23
22 27 27 28 27 26 34 14 14 17 23 31 37 38 42 26 20 19 20 21 26 28 27 27 33 32 28 28 29 30 35 34 33 36 32 30 25 21 19 22 21 21 25
27 20 21 27 29 32 24 17 14 20 26 27 35 36 34 22 16 14 14 16 21 23 24 23 29 31 29 29 29 30 37 35 28 35 28 25 23 21 22 24 23 23 24
23 24 23 24 30 15 12 12 17 21 25 28 31 33 29 16 11 10 9 12 16 19 20 21 24 29 29 29 30 29 38 35 32 30 23 22 25 22 21 21 23 24 24
17 17 21 24 26 15 15 16 18 25 27 24 28 31 28 12 9 9 8 8 11 12 14 16 21 24 27 28 29 28 30 31 31 28 23 23 22 22 24 24 23 22 21
13 15 16 18 16 14 18 17 20 26 21 23 25 30 23 10 11 9 5 5 7 11 14 15 19 22 25 27 28 29 34 33 31 25 27 26 25 29 26 25 21 21 23
13 16 16 17 18 17 17 22 21 19 19 19 22 27 29 12 7 5 5 5 7 8 11 14 16 19 22 24 27 29 31 35 34 29 31 27 28 29 29 32 28 27 24
14 16 12 13 16 17 22 25 21 18 13 13 18 24 29 24 8 4 3 1 1 3 7 10 12 15 19 22 24 25 30 32 33 32 28 26 24 26 24 25 22 27 26
18 18 16 19 18 22 23 26 17 10 8 12 16 19 24 28 21 8 1 3 4 3 4 5 7 12 17 20 22 21 25 25 24 25 22 23 25 23 19 29 24 25 27
20 20 21 20 20 20 21 24 18 7 8 13 18 16 17 21 24 22 7 4 3 2 3 3 8 9 13 15 17 16 18 24 28 28 26 28 27 26 26 29 30 27 28
22 21 22 22 21 22 18 16 14 11 12 18 20 20 19 18 18 17 14 15 13 5 7 6 5 9 10 9 12 16 21 25 27 28 29 30 31 31 33 22 27 27 27
20 22 24 24 24 22 20 16 15 16 17 16 18 21 20 21 19 17 12 11 10 12 10 4 9 11 14 16 18 20 22 26 23 31 32 32 32 33 32 29 25 21 20
21 24 27 26 25 22 20 19 20 22 20 21 25 28 24 21 20 16 13 10 9 10 8 7 9 10 11 13 18 21 26 30 28 31 31 34 34 30 29 31 29 29 29
23 23 26 25 22 20 18 18 22 19 18 20 24 27 25 22 19 17 14 14 12 9 9 10 10 13 10 10 11 14 19 23 24 28 31 33 34 30 25 29 31 33 36
21 24 27 26 23 20 20 20 20 23 23 23 23 20 24 22 21 16 11 13 13 14 11 12 15 15 16 17 18 17 16 19 21 22 25 26 27 29 32 29 28 28 27
25 29 30 27 22 20 21 23 23 23 24 23 24 19 19 18 14 11 10 14 15 18 20 19 19 20 20 21 22 22 23 23 24 24 26 28 30 30 26 27 27 28 27
29 32 29 27 23 22 23 22 24 28 26 22 20 17 15 11 15 14 15 16 19 23 25 23 22 21 22 24 23 23 25 26 27 29 30 30 29 28 27 27 27 28 29
31 33 28 27 25 23 22 22 24 24 23 21 18 17 19 17 17 17 17 20 22 21 21 22 21 23 25 23 23 24 26 27 30 32 33 33 34 33 31 30 30 32 34
31 31 31 28 24 22 21 22 22 20 19 17 16 17 19 19 22 23 23 24 22 21 24 25 26 23 25 24 27 27 28 30 31 30 32 33 36 38 39 40 40 40 43
31 31 30 26 26 22 22 23 21 21 20 18 17 19 19 22 21 24 24 23 23 24 26 26 24 28 30 31 31 33 36 35 32 30 32 35 35 35 37 40 41 43 39
33 32 30 27 26 25 25 24 21 21 22 22 24 22 19 19 21 23 26 29 27 25 24 23 17 24 28 24 28 35 34 30 29 28 28 25 27 29 31 32 34 39 47
35 33 31 30 27 26 26 25 23 23 25 28 28 26 23 22 23 26 28 26 27 28 32 28 24 21 21 23 27 31 30 34 34 31 30 33 37 38 38 34 34 37 39
35 35 32 30 27 27 27 27 28 29 30 32 33 30 26 23 22 22 25 27 27 26 26 25 24 23 22 22 23 25 27 29 31 31 28 29 32 34 36 38 41 44 45
32 31 32 31 28 27 30 28 28 30 32 31 30 27 24 21 20 19 19 21 22 24 24 23 22 23 24 24 25 23 24 26 28 30 33 36 38 40 42 44 47 49 52
Wind_Direction
327 339 324 310 304 309 319 317 324 338 339 335 335 325 315 310 295 279 270 260 253 253 247 243 246 248 250 221 213 220 223 221 214 211 216 219 223 230 237 238 243 251 261
330 318 310 300 296 300 312 317 327 340 341 339 335 325 317 316 302 291 268 252 251 247 238 238 243 242 241 235 223 227 228 225 225 209 218 226 229 232 238 244 247 254 265
317 310 307 302 288 285 299 311 324 331 339 337 338 333 328 319 297 293 272 253 234 235 234 236 236 238 237 232 231 230 225 226 223 225 217 229 236 236 240 245 251 259 267
299 302 297 305 315 293 308 306 316 321 329 334 339 335 330 318 301 289 275 257 235 234 237 245 234 231 235 234 233 235 229 218 224 226 224 229 233 239 246 253 255 264 271
288 305 310 301 309 301 299 304 332 333 337 333 337 337 330 318 309 287 275 247 233 233 244 241 227 225 229 236 235 238 221 219 224 231 222 228 234 244 251 256 258 265 272
308 317 305 302 304 292 313 321 336 337 343 339 337 340 331 324 322 309 279 244 235 240 241 235 226 227 228 234 234 231 219 223 225 236 220 229 232 239 249 253 263 270 264
324 315 309 310 315 325 310 320 325 333 335 338 344 345 333 322 325 311 288 254 234 230 230 225 226 227 228 228 226 223 218 219 224 228 227 231 226 236 248 256 264 271 263
327 308 336 339 319 314 333 326 327 328 338 341 352 350 342 322 317 299 270 243 249 242 234 229 224 226 228 224 223 222 222 224 225 231 236 235 242 239 248 255 258 261 266
324 332 342 333 335 324 339 333 325 323 335 340 357 358 1 336 325 316 245 249 256 244 230 227 224 223 225 223 224 223 225 224 229 229 238 238 242 249 253 259 258 260 261
340 337 333 328 337 351 345 341 324 321 338 346 4 4 0 6 334 307 242 253 264 233 230 239 237 223 215 216 215 227 224 226 234 234 238 240 239 255 271 262 268 271 262
327 328 333 340 338 340 344 343 335 338 2 3 8 4 5 13 10 13 141 75 86 135 203 190 219 214 215 214 222 227 219 227 232 235 233 242 254 258 258 249 269 269 264
312 316 324 326 327 325 341 353 351 18 18 1 5 3 4 7 12 16 4 294 325 245 224 168 201 204 214 219 222 220 215 229 237 238 237 242 255 254 263 262 268 265 260
305 304 311 322 325 320 326 353 10 8 349 342 343 351 350 348 355 3 13 5 10 267 231 221 225 217 217 231 237 239 236 245 247 238 243 240 242 247 256 258 265 265 262
288 298 306 315 322 316 306 299 331 339 335 335 341 340 336 334 341 343 352 6 359 358 354 256 254 256 260 259 254 244 248 255 266 243 240 242 243 249 247 249 257 252 264
283 296 304 311 315 311 307 298 308 311 306 319 329 328 328 328 328 334 338 337 348 358 338 324 328 309 281 265 257 256 253 255 257 250 248 248 247 238 253 251 243 255 269
284 294 299 305 305 304 304 301 311 312 303 313 317 320 321 326 332 328 317 328 323 325 327 319 309 302 306 289 283 276 267 259 260 258 259 258 254 253 256 256 264 270 274
300 299 298 300 296 289 302 300 296 301 306 310 313 314 312 317 328 325 305 309 312 309 299 293 297 292 289 288 288 288 283 278 275 267 257 257 255 263 273 279 274 270 278
301 301 299 293 288 283 291 298 300 301 306 309 308 308 305 317 333 328 314 298 298 294 291 289 288 290 286 281 283 284 282 281 281 281 279 277 274 273 271 271 273 275 273
297 304 299 290 284 282 282 293 298 304 305 305 297 295 289 283 298 284 281 284 287 288 285 282 282 284 285 276 281 286 285 282 280 284 284 281 276 271 269 271 272 272 269
293 301 295 288 282 279 286 292 298 300 306 310 296 288 283 283 299 293 280 281 287 285 283 288 286 292 287 288 282 283 281 284 282 280 279 277 277 278 277 276 276 276 275
288 294 291 282 273 277 284 294 302 306 307 311 294 281 281 276 293 290 286 282 283 282 284 286 290 293 288 287 285 286 287 282 281 275 275 276 277 276 277 279 276 280 280
285 290 288 277 272 271 282 293 304 309 307 311 311 300 284 275 279 280 281 283 290 290 287 288 286 288 292 285 290 289 289 285 284 282 275 275 274 276 278 278 278 279 275
277 283 282 274 274 277 283 288 301 308 306 311 312 307 297 292 282 276 284 280 287 276 279 284 283 289 296 299 295 289 288 269 273 283 278 288 292 294 288 289 288 287 285
271 276 275 271 273 277 284 281 290 297 303 310 309 305 300 290 287 276 275 280 281 272 269 298 304 296 288 285 284 284 284 288 281 283 269 285 296 294 295 301 300 297 295
270 275 269 269 266 271 283 283 283 288 296 304 303 301 297 293 290 288 284 284 286 290 290 294 297 296 292 290 288 287 290 289 289 292 299 298 297 295 292 292 291 290 289
269 273 269 267 266 270 280 285 285 288 294 297 299 299 298 299 292 289 285 284 288 290 290 294 293 291 294 296 298 300 299 298 298 296 294 294 295 296 295 294 292 291 291